Location: Makanda
(37.6176°N, 89.2090°W)
Time: 06:47:10
(UTC+00:00)

ATLAS CENTAUR R/B - Pass Details

Date: 23 September 2019
Orbit: 450 x 698 km, 64.7° (Epoch: 19 October)

Event Time Altitude Azimuth Distance (km) Brightness Sun altitude
Rises 10:57:12 0° 334° (NNW) 2,915 4.8 -10.3°
Reaches altitude 10° 10:59:39 10° 340° (NNW) 1,963 4.0 -9.8°
Maximum altitude 11:03:55 46° 54° (NE) 773 2.6 -9.0°
Drops below altitude 10° 11:07:49 10° 129° (SE) 1,799 4.6 -8.2°
Sets 11:09:59 0° 136° (SE) 2,644 5.4 -7.8°
